Regional Weather Roundup
Issued by NWS

Home | Current Version | Previous Version | Text Only | Print | Product List | Glossary Off
Versions: 1 2 3 4 5 6 7 8 9 10 11 12 13 14 15 16 17 18 19 20 21 22 23 24 25 26 27 28 29 30 31 32 33 34 35 36 37 38 39 40 41 42 43 44 45 46 47 48 49 50

000
ASUS43 KLOT 270710
RWRIL

ILLINOIS REGIONAL WEATHER ROUNDUP
NATIONAL WEATHER SERVICE CHICAGO/ROMEOVILLE IL
200 AM CDT WED AUG 27 2014

NOTE: "FAIR" INDICATES FEW OR NO CLOUDS BELOW 12,000 FEET WITH NO
SIGNIFICANT WEATHER AND/OR OBSTRUCTIONS TO VISIBILITY.

* THESE STATIONS ARE NOT UNDER NWS QUALITY CONTROL. THEY ALSO MAY NOT
  REPORT WEATHER SUCH AS PRECIPITATION OR FOG.

ILZ001-002-007-009-015-016-024-270800-
NORTHWEST ILLINOIS

CITY           SKY/WX    TMP DP  RH WIND       PRES   REMARKS
MOLINE         MOCLDY    70  65  84 CALM      30.12F
STERLING*      MOCLDY    70  64  83 N3        30.13S
SAVANNA*       CLOUDY    68  63  84 CALM      30.14R
$$

ILZ003-004-008-010-011-017-018-270800-
NORTH CENTRAL ILLINOIS

CITY           SKY/WX    TMP DP  RH WIND       PRES   REMARKS
ROCKFORD       CLOUDY    68  60  75 N6        30.14S
FREEPORT*      CLOUDY    64  62  93 CALM      30.17S
ROCHELLE*      MOCLDY    67  63  86 CALM      30.14R
DE KALB*       MOCLDY    65  61  88 CALM      30.14R
PERU*          MOCLDY    70  66  88 NE5       30.12S
$$

ILZ005-006-012>014-019>023-270800-
NORTHEAST ILLINOIS

CITY           SKY/WX    TMP DP  RH WIND       PRES   REMARKS
CHICAGO-OHARE  MOCLDY    71  63  75 NE5       30.11R
CHICAGO-MIDWAY MOCLDY    73  68  84 CALM      30.10F
AURORA         MOCLDY    69  64  84 N3        30.12S
LANSING*       MOCLDY    69  67  93 NE3       30.11S
JOLIET*        MOCLDY    70  66  88 N5        30.11F
WAUKEGAN       MOCLDY    65  62  90 CALM      30.12R
DUPAGE AIRPORT MOCLDY    69  63  81 N3        30.12R
KANKAKEE*      CLOUDY    71  68  92 NE6       30.11S
WHEELING       MOCLDY    69  66  90 CALM      30.13R
MORRIS*        CLOUDY    70  70  99 CALM      30.10F
ROMEOVILLE*    PTCLDY    69  67  95 NE6       30.11S
NORTHERLY ISL    N/A     71  65  81 NE5         N/A
$$

LMZ740>746-270800-
SOUTHERN LAKE MICHIGAN

STATION/POSITION SKY/WX   TEMP    WIND        PRES    VSBY  WAVE
                          AIR SEA DIR/SP/G                  HT/PER
                          (F)     (DEG/KT/KT) (MB)    (MI)  (FT/S)
SOUTHERN BUOY              68 69  360/  2/  2 1019.8F         0
WAUKEGAN HARBOR            67     330/  4/  4   N/A
HARRISON CRIB              71      90/  4/  5   N/A
BURNHAM HARBOR             71      50/  4/  6   N/A
CALUMET HARBOR             71      10/  4/  5 1018.2F
MICHIGAN CITY              68      60/  6/  8   N/A
MICHIGAN CITY 6N           70 73  100/  8/ 10   N/A           1/ 4
ST. JOSEPH                 70 73   50/  8/  8   N/A           1/ 4
$$

ILZ025>027-034>036-040-047-049-050-058-095>099-270800-
WEST-CENTRAL ILLINOIS

CITY           SKY/WX    TMP DP  RH WIND       PRES   REMARKS
QUINCY         PTCLDY    73  69  87 CALM      30.11F
GALESBURG*     CLOUDY    70  67  92 NW3       30.12S
MACOMB*        MOCLDY    70  68  96 CALM      30.13S
JACKSONVILLE*  LGT RAIN  74  68  82 W7        30.10F
PITTSFIELD*    PTCLDY    73  68  84 SW3       30.11F
$$

ILZ028>032-037-038-041>044-048-051>054-059>061-270800-
CENTRAL ILLINOIS

CITY           SKY/WX    TMP DP  RH WIND       PRES   REMARKS
PONTIAC        PTCLDY    72  70  94 NE5       30.09F
DECATUR        CLOUDY    68  66  93 NE5       30.09S
PEORIA         PTCLDY    75  70  84 NE7       30.10S
LACON*         MOCLDY    71  67  86 CALM      30.10S
LINCOLN*       PTCLDY    71  68  90 CALM      30.06F
SPRINGFIELD    PTCLDY    73  66  78 W5        30.08S
TAYLORVILLE    MOCLDY    66  64  94 NW3       30.06F
$$

ILZ033-039-045-046-055>057-062-063-270800-
EAST-CENTRAL ILLINOIS

CITY           SKY/WX    TMP DP  RH WIND       PRES   REMARKS
CHAMPAIGN      CLOUDY    70  66  87 N5        30.10F
DANVILLE*      HVY RAIN  67  67  99 CALM      30.07S
RANTOUL*       CLOUDY    71  67  87 CALM      30.10F
MATTOON        CLOUDY    71  69  93 NE3       30.08F
PARIS*         CLOUDY    70  70  99 CALM      30.10F FOG
$$

ILZ079-100>102-270800-
SOUTHWEST ILLINOIS

CITY           SKY/WX    TMP DP  RH WIND       PRES   REMARKS
BELLEVILLE     MOCLDY    73  69  87 VRB2      30.07F
SPARTA*        PTCLDY    76  74  93 CALM      30.09F
$$

ILZ064>066-069>071-074>076-080>082-084>086-088>090-092>094-270800-
SOUTH-CENTRAL ILLINOIS

CITY           SKY/WX    TMP DP  RH WIND       PRES   REMARKS
CARBONDALE     PTCLDY    75  73  93 CALM      30.07F FOG
CAIRO*           N/A     75  72  90 CALM      30.07S FOG
EFFINGHAM*     RAIN      73  67  84 CALM      30.08S
MARION         PTCLDY    75  73  94 CALM      30.08F FOG
MT. VERNON     CLEAR     73  70  88 CALM      30.08F
SALEM*         CLEAR     73  71  92 CALM      30.08F
METROPOLIS*    CLEAR     73  72  96 CALM      30.06F FOG
$$

ILZ067-068-072-073-078-083-087-091-270800-
SOUTHEAST ILLINOIS

CITY           SKY/WX    TMP DP  RH WIND       PRES   REMARKS
LAWRENCEVILLE  MOCLDY    74  72  93 SE5       30.07F
FLORA*         MOCLDY    72  70  94 CALM      30.08F
FAIRFIELD*     CLEAR     75  73  94 CALM      30.06F FOG
HARRISBURG*    CLEAR     73  73 100 CALM      30.09S FOG
ROBINSON*      CLOUDY    72  71  97 S5        30.07F FOG
CARMI*         CLEAR     75  73  94 CALM      30.07F FOG
$$

ABBREVIATIONS USED IN REMARKS
   TC - TEMPERATURE IN CELSIUS
  WCI - WIND CHILL INDEX
   HX - HEAT INDEX
  VSB - VISIBILITY
$$




USA.gov is the U.S. government's official web portal to all federal, state and local government web resources and services.